Location: Unspecified
(0.0000°N, 0.0000°E)
Time: 01:55:06
(UTC+00:00)

Hubble Space Telescope - Pass Details

Date: 28 February 2021
Orbit: 536 x 539 km, 28.5° (Epoch: 24 February)

Event Time Altitude Azimuth Distance (km) Brightness Sun altitude
Exits shadow 04:21:14 16° 31° (NNE) 1,430 3.1 -27.5°
Drops below altitude 10° 04:23:40 10° 68° (ENE) 1,780 4.1 -26.9°
Sets 04:26:38 0° 89° (E) 2,672 5.6 -26.2°
